TimeCST,TemperatureF,Dew PointF,Humidity,Sea Level PressureIn,VisibilityMPH,Wind Direction,Wind SpeedMPH,Gust SpeedMPH,PrecipitationIn,Events,Conditions,WindDirDegrees,DateUTC
12:53 AM,27.0,19.9,75,30.04,10.0,SE,5.8,-,N/A,,Clear,140,2013-02-17 06:53:00
1:53 AM,27.0,19.9,75,30.04,10.0,ESE,5.8,-,N/A,,Clear,120,2013-02-17 07:53:00
2:53 AM,27.0,21.0,78,30.04,10.0,ESE,5.8,-,N/A,,Mostly Cloudy,120,2013-02-17 08:53:00
3:53 AM,26.1,19.9,78,30.02,10.0,SE,5.8,-,N/A,,Clear,140,2013-02-17 09:53:00
4:53 AM,24.1,19.0,81,30.02,10.0,SE,4.6,-,N/A,,Clear,130,2013-02-17 10:53:00
5:53 AM,24.1,19.0,81,30.01,10.0,SE,5.8,-,N/A,,Clear,130,2013-02-17 11:53:00
6:53 AM,24.8,17.6,74,29.97,10.0,SSE,6.9,-,N/A,,Clear,160,2013-02-17 12:53:00
7:53 AM,24.8,19.4,80,29.96,10.0,SE,4.6,-,N/A,,Clear,130,2013-02-17 13:53:00
8:53 AM,30.9,21.9,69,29.97,10.0,SE,9.2,-,N/A,,Clear,140,2013-02-17 14:53:00
9:53 AM,37.0,23.0,57,29.96,10.0,SSE,11.5,-,N/A,,Clear,150,2013-02-17 15:53:00
10:53 AM,42.1,25.0,51,29.94,10.0,SSE,10.4,-,N/A,,Clear,150,2013-02-17 16:53:00
11:53 AM,48.0,27.0,44,29.89,10.0,SSE,15.0,21.9,N/A,,Clear,150,2013-02-17 17:53:00
12:53 PM,51.1,28.9,43,29.84,10.0,SSE,17.3,24.2,N/A,,Clear,150,2013-02-17 18:53:00
1:53 PM,55.0,30.9,40,29.80,10.0,SSE,15.0,21.9,N/A,,Clear,160,2013-02-17 19:53:00
2:53 PM,55.9,32.0,40,29.76,10.0,SSE,17.3,24.2,N/A,,Clear,160,2013-02-17 20:53:00
3:53 PM,57.0,32.0,39,29.73,10.0,SSE,18.4,21.9,N/A,,Clear,160,2013-02-17 21:53:00
4:53 PM,55.0,33.1,43,29.71,10.0,SSE,15.0,-,N/A,,Clear,150,2013-02-17 22:53:00
5:53 PM,52.0,33.1,49,29.69,10.0,SE,13.8,-,N/A,,Clear,140,2013-02-17 23:53:00
6:53 PM,46.0,30.9,56,29.70,10.0,SSE,9.2,-,N/A,,Clear,150,2013-02-18 00:53:00
7:53 PM,45.0,30.9,58,29.69,10.0,SE,8.1,-,N/A,,Clear,130,2013-02-18 01:53:00
8:53 PM,44.1,30.9,60,29.67,10.0,SE,8.1,-,N/A,,Clear,140,2013-02-18 02:53:00
9:53 PM,41.0,30.0,65,29.65,10.0,ESE,6.9,-,N/A,,Clear,110,2013-02-18 03:53:00
11:53 PM,41.0,30.9,67,29.61,10.0,SE,5.8,-,N/A,,Clear,140,2013-02-18 05:53:00